UPS429 HECA-UDYZ

Flight info

Callsign UPS429
Flight time 2h 6m
Altitude 40000
Route LONIR V602 PSD J863 LAKTO N71 STEPA L78 DESPO N71 ALSUS M978 NIKAS R785 BAN DCT ALE B544 TUSYR UB36 GAZ UW701 ERZ UN161 ELTOX N161 INDUR
Aircraft MD11/H-SDE1E2E3FGHIJ2J3J4J5M1RWXY/LB1D1

Departure

Time 2026-04-29 09:06
Airport Cairo International Airport (HECA)

Arrival

Time 2026-04-29 11:12
Airport Zvartnots International Airport (UDYZ)
Time Latitude Longitude Altitude Speed Heading
2026-04-29 08:51 30.11764 31.41032 382 ft 0 kts 252°
2026-04-29 08:55 30.11770 31.41056 382 ft 4 kts 258°
2026-04-29 08:56 30.11775 31.41086 382 ft 4 kts 251°
2026-04-29 08:56 30.11785 31.41109 382 ft 2 kts 219°
2026-04-29 08:56 30.11802 31.41121 382 ft 4 kts 181°
2026-04-29 08:56 30.11827 31.41118 382 ft 4 kts 163°
2026-04-29 08:57 30.11840 31.41113 382 ft 1 kts 162°
2026-04-29 08:57 30.11841 31.41113 382 ft 0 kts 162°
2026-04-29 09:00 30.11840 31.41113 382 ft 0 kts 162°
2026-04-29 09:00 30.11836 31.41114 382 ft 2 kts 162°
2026-04-29 09:00 30.11800 31.41128 382 ft 11 kts 162°
2026-04-29 09:01 30.11707 31.41164 382 ft 16 kts 161°
2026-04-29 09:01 30.11591 31.41206 382 ft 19 kts 163°
2026-04-29 09:01 30.11458 31.41234 382 ft 18 kts 193°
2026-04-29 09:01 30.11380 31.41151 382 ft 15 kts 227°
2026-04-29 09:02 30.11302 31.41051 382 ft 18 kts 230°
2026-04-29 09:02 30.11216 31.40931 382 ft 21 kts 229°
2026-04-29 09:02 30.11116 31.40801 382 ft 23 kts 228°
2026-04-29 09:02 30.11008 31.40654 382 ft 25 kts 230°
2026-04-29 09:03 30.10888 31.40498 382 ft 27 kts 228°
2026-04-29 09:03 30.10763 31.40331 382 ft 28 kts 229°
2026-04-29 09:03 30.10634 31.40158 382 ft 28 kts 229°
2026-04-29 09:03 30.10508 31.39994 382 ft 26 kts 228°
2026-04-29 09:04 30.10391 31.39839 382 ft 25 kts 229°
2026-04-29 09:04 30.10282 31.39693 382 ft 23 kts 228°
2026-04-29 09:04 30.10183 31.39584 382 ft 11 kts 201°
2026-04-29 09:04 30.10150 31.39588 382 ft 3 kts 156°
2026-04-29 09:05 30.10097 31.39624 382 ft 16 kts 142°
2026-04-29 09:05 30.10006 31.39772 382 ft 29 kts 102°
2026-04-29 09:05 30.10147 31.40062 380 ft 81 kts 49°
2026-04-29 09:05 30.10768 31.40869 384 ft 181 kts 51°
2026-04-29 09:06 30.11609 31.42088 1097 ft 201 kts 51°
2026-04-29 09:06 30.12539 31.43431 1779 ft 222 kts 49°
2026-04-29 09:06 30.13499 31.44755 3183 ft 188 kts 49°
2026-04-29 09:06 30.14352 31.45921 4477 ft 201 kts 49°
2026-04-29 09:07 30.15359 31.47282 4713 ft 240 kts 49°
2026-04-29 09:07 30.16400 31.48918 4858 ft 265 kts 56°
2026-04-29 09:07 30.17393 31.50756 5405 ft 271 kts 57°
2026-04-29 09:07 30.18389 31.52621 6170 ft 274 kts 57°
2026-04-29 09:08 30.19403 31.54496 7266 ft 276 kts 56°
2026-04-29 09:08 30.20439 31.56387 8351 ft 281 kts 55°
2026-04-29 09:08 30.21501 31.58305 9384 ft 286 kts 55°
2026-04-29 09:08 30.22589 31.60258 10318 ft 296 kts 55°
2026-04-29 09:09 30.23784 31.62385 10471 ft 334 kts 55°
2026-04-29 09:09 30.25111 31.64742 10782 ft 362 kts 55°
2026-04-29 09:09 30.26496 31.67209 11780 ft 368 kts 55°
2026-04-29 09:09 30.27901 31.69714 12735 ft 374 kts 55°
2026-04-29 09:10 30.29329 31.72260 13673 ft 381 kts 55°
2026-04-29 09:10 30.30784 31.74851 14586 ft 387 kts 54°
2026-04-29 09:10 30.32259 31.77479 15471 ft 392 kts 54°
2026-04-29 09:10 30.33754 31.80143 16324 ft 398 kts 54°
2026-04-29 09:11 30.35275 31.82853 17168 ft 404 kts 53°
2026-04-29 09:11 30.36818 31.85603 17985 ft 410 kts 53°
2026-04-29 09:11 30.38381 31.88392 18788 ft 416 kts 53°
2026-04-29 09:11 30.39962 31.91213 19546 ft 421 kts 53°
2026-04-29 09:12 30.41568 31.94081 20305 ft 427 kts 53°
2026-04-29 09:12 30.43171 31.96948 21011 ft 432 kts 53°
2026-04-29 09:12 30.44815 31.99890 21721 ft 437 kts 53°
2026-04-29 09:12 30.46474 32.02860 22409 ft 442 kts 53°
2026-04-29 09:13 30.48155 32.05874 23072 ft 448 kts 53°
2026-04-29 09:13 30.49856 32.08924 23723 ft 453 kts 53°
2026-04-29 09:13 30.51575 32.12009 24359 ft 457 kts 53°
2026-04-29 09:13 30.53304 32.15118 24968 ft 462 kts 53°
2026-04-29 09:14 30.55095 32.18233 25551 ft 465 kts 49°
2026-04-29 09:14 30.57150 32.21117 26142 ft 463 kts 40°
2026-04-29 09:14 30.59596 32.23511 26712 ft 458 kts 28°
2026-04-29 09:14 30.62367 32.25255 27287 ft 452 kts 16°
2026-04-29 09:15 30.65352 32.26322 27836 ft 447 kts
2026-04-29 09:15 30.68426 32.26729 28374 ft 443 kts 356°
2026-04-29 09:15 30.71509 32.26683 28901 ft 443 kts 352°
2026-04-29 09:15 30.74586 32.26465 29424 ft 445 kts 351°
2026-04-29 09:16 30.77685 32.26214 29950 ft 448 kts 351°
2026-04-29 09:16 30.80808 32.25984 30469 ft 451 kts 351°
2026-04-29 09:16 30.83952 32.25787 31012 ft 453 kts 352°
2026-04-29 09:16 30.87107 32.25618 31606 ft 454 kts 352°
2026-04-29 09:17 30.90257 32.25467 32189 ft 454 kts 352°
2026-04-29 09:17 30.93426 32.25323 32761 ft 454 kts 352°
2026-04-29 09:17 30.96585 32.25183 33323 ft 454 kts 352°
2026-04-29 09:17 30.99738 32.25042 33848 ft 454 kts 352°
2026-04-29 09:18 31.02896 32.24900 34343 ft 454 kts 352°
2026-04-29 09:18 31.06052 32.24756 34797 ft 454 kts 352°
2026-04-29 09:18 31.09216 32.24612 35253 ft 455 kts 352°
2026-04-29 09:18 31.12379 32.24468 35672 ft 456 kts 351°
2026-04-29 09:19 31.15552 32.24323 36087 ft 456 kts 351°
2026-04-29 09:19 31.18725 32.24179 36457 ft 457 kts 351°
2026-04-29 09:19 31.21911 32.24032 36806 ft 459 kts 351°
2026-04-29 09:19 31.25095 32.23887 37210 ft 458 kts 351°
2026-04-29 09:20 31.28278 32.23723 37604 ft 456 kts 350°
2026-04-29 09:20 31.31434 32.23456 38005 ft 454 kts 348°
2026-04-29 09:20 31.34536 32.23124 38354 ft 453 kts 347°
2026-04-29 09:20 31.37706 32.22755 38737 ft 451 kts 347°
2026-04-29 09:21 31.40828 32.22386 39111 ft 450 kts 347°
2026-04-29 09:21 31.43934 32.22020 39487 ft 448 kts 347°
2026-04-29 09:21 31.46988 32.21667 39843 ft 446 kts 347°
2026-04-29 09:21 31.50088 32.21309 39958 ft 450 kts 347°
2026-04-29 09:22 31.53227 32.20947 39991 ft 456 kts 347°
2026-04-29 09:22 31.59601 32.20216 40039 ft 463 kts 347°
2026-04-29 09:23 31.66001 32.19497 40048 ft 461 kts 347°
2026-04-29 09:23 31.72376 32.18776 40039 ft 461 kts 347°
2026-04-29 09:24 31.78761 32.18048 40049 ft 461 kts 347°
2026-04-29 09:24 31.85139 32.17321 40050 ft 460 kts 347°
2026-04-29 09:25 31.91504 32.16593 40039 ft 460 kts 347°
2026-04-29 09:25 31.97879 32.15863 40040 ft 460 kts 347°
2026-04-29 09:26 32.04245 32.15133 40050 ft 460 kts 347°
2026-04-29 09:26 32.10619 32.14402 40042 ft 460 kts 347°
2026-04-29 09:27 32.16984 32.13667 40044 ft 460 kts 347°
2026-04-29 09:27 32.23357 32.12931 40047 ft 460 kts 347°
2026-04-29 09:28 32.29688 32.12199 40038 ft 460 kts 347°
2026-04-29 09:28 32.36056 32.11462 40044 ft 460 kts 347°
2026-04-29 09:29 32.42434 32.10724 40041 ft 460 kts 347°
2026-04-29 09:29 32.52007 32.09710 40043 ft 464 kts 351°
2026-04-29 09:30 32.58502 32.10441 40036 ft 479 kts
2026-04-29 09:30 32.64709 32.13631 40033 ft 497 kts 27°
2026-04-29 09:31 32.69935 32.19135 40038 ft 512 kts 46°
2026-04-29 09:31 32.74081 32.26077 40041 ft 517 kts 53°
2026-04-29 09:32 32.77986 32.33260 40039 ft 517 kts 52°
2026-04-29 09:32 32.82219 32.40090 40040 ft 510 kts 43°
2026-04-29 09:33 32.87218 32.46018 40032 ft 506 kts 38°
2026-04-29 09:33 32.92354 32.51732 40028 ft 506 kts 38°
2026-04-29 09:34 32.97445 32.57523 40024 ft 506 kts 39°
2026-04-29 09:34 33.02487 32.63365 40029 ft 506 kts 39°
2026-04-29 09:35 33.07519 32.69227 40024 ft 505 kts 39°
2026-04-29 09:35 33.12546 32.75087 40023 ft 505 kts 39°
2026-04-29 09:36 33.17573 32.80953 40025 ft 505 kts 39°
2026-04-29 09:36 33.22588 32.86814 40028 ft 505 kts 39°
2026-04-29 09:37 33.26757 32.91694 40025 ft 505 kts 39°
2026-04-29 09:37 33.32579 32.98520 40029 ft 505 kts 39°
2026-04-29 09:38 33.37592 33.04409 40025 ft 505 kts 40°
2026-04-29 09:38 33.42591 33.10308 40026 ft 505 kts 40°
2026-04-29 09:39 33.47589 33.16228 40025 ft 505 kts 40°
2026-04-29 09:39 33.51740 33.21138 40029 ft 505 kts 40°
2026-04-29 09:40 33.56745 33.27057 40025 ft 505 kts 40°
2026-04-29 09:40 33.61743 33.32976 40029 ft 505 kts 40°
2026-04-29 09:41 33.66750 33.38914 40023 ft 506 kts 40°
2026-04-29 09:41 33.71761 33.44846 40023 ft 505 kts 40°
2026-04-29 09:42 33.76773 33.50770 40028 ft 506 kts 40°
2026-04-29 09:42 33.81791 33.56710 40022 ft 506 kts 40°
2026-04-29 09:43 33.86694 33.62788 40018 ft 507 kts 43°
2026-04-29 09:43 33.91517 33.69003 40018 ft 508 kts 43°
2026-04-29 09:44 33.96328 33.75220 40017 ft 507 kts 43°
2026-04-29 09:44 34.01151 33.81437 40017 ft 508 kts 43°
2026-04-29 09:45 34.05963 33.87659 40017 ft 508 kts 43°
2026-04-29 09:45 34.10774 33.93903 40018 ft 508 kts 43°
2026-04-29 09:46 34.15577 34.00143 40017 ft 508 kts 43°
2026-04-29 09:46 34.20385 34.06398 40018 ft 508 kts 43°
2026-04-29 09:47 34.25191 34.12659 40017 ft 508 kts 43°
2026-04-29 09:47 34.29986 34.18919 40018 ft 508 kts 43°
2026-04-29 09:48 34.34781 34.25191 40018 ft 507 kts 43°
2026-04-29 09:48 34.39570 34.31464 40018 ft 508 kts 44°
2026-04-29 09:49 34.44526 34.37517 40014 ft 502 kts 34°
2026-04-29 09:49 34.47401 34.39858 40017 ft 495 kts 23°
2026-04-29 09:49 34.50506 34.41561 40020 ft 489 kts 15°
2026-04-29 09:50 34.56912 34.44125 40018 ft 488 kts 13°
2026-04-29 09:50 34.63339 34.46791 40018 ft 489 kts 15°
2026-04-29 09:51 34.69722 34.49717 40017 ft 491 kts 16°
2026-04-29 09:51 34.76086 34.52736 40018 ft 491 kts 17°
2026-04-29 09:52 34.82437 34.55758 40017 ft 490 kts 17°
2026-04-29 09:52 34.88798 34.58778 40018 ft 491 kts 17°
2026-04-29 09:53 34.95080 34.62060 40008 ft 495 kts 24°
2026-04-29 09:53 35.00613 34.67136 40006 ft 504 kts 44°
2026-04-29 09:54 35.04500 34.74218 40009 ft 512 kts 64°
2026-04-29 09:54 35.06497 34.82574 40010 ft 515 kts 79°
2026-04-29 09:55 35.07657 34.91265 40009 ft 516 kts 81°
2026-04-29 09:55 35.08803 34.99859 40008 ft 516 kts 79°
2026-04-29 09:56 35.10062 35.08476 40008 ft 516 kts 79°
2026-04-29 09:56 35.11360 35.17099 40009 ft 516 kts 79°
2026-04-29 09:57 35.12652 35.25723 40001 ft 516 kts 79°
2026-04-29 09:57 35.13930 35.34334 39998 ft 516 kts 79°
2026-04-29 09:58 35.15200 35.42962 39998 ft 516 kts 79°
2026-04-29 09:58 35.16464 35.51579 39997 ft 516 kts 79°
2026-04-29 09:59 35.17725 35.60212 40000 ft 516 kts 79°
2026-04-29 09:59 35.18979 35.68848 40000 ft 516 kts 80°
2026-04-29 10:00 35.20179 35.77482 39998 ft 515 kts 80°
2026-04-29 10:00 35.21386 35.86102 39995 ft 515 kts 79°
2026-04-29 10:01 35.22673 35.94714 39992 ft 514 kts 79°
2026-04-29 10:01 35.24682 36.03085 39988 ft 512 kts 64°
2026-04-29 10:02 35.26408 36.06871 39989 ft 510 kts 53°
2026-04-29 10:02 35.28622 36.10242 39987 ft 507 kts 44°
2026-04-29 10:02 35.33822 36.16027 39991 ft 505 kts 37°
2026-04-29 10:03 35.39198 36.21588 39985 ft 506 kts 38°
2026-04-29 10:03 35.44464 36.27282 39981 ft 505 kts 39°
2026-04-29 10:04 35.49638 36.33031 39985 ft 505 kts 39°
2026-04-29 10:04 35.54823 36.38828 39990 ft 505 kts 39°
2026-04-29 10:05 35.60018 36.44635 39989 ft 504 kts 39°
2026-04-29 10:05 35.65091 36.50612 39978 ft 506 kts 44°
2026-04-29 10:06 35.69879 36.56955 39981 ft 507 kts 45°
2026-04-29 10:06 35.74621 36.63375 39982 ft 507 kts 45°
2026-04-29 10:07 35.79381 36.69771 39975 ft 507 kts 45°
2026-04-29 10:07 35.84154 36.76156 39984 ft 507 kts 45°
2026-04-29 10:08 35.88933 36.82557 39988 ft 507 kts 45°
2026-04-29 10:08 35.93704 36.88961 39991 ft 507 kts 45°
2026-04-29 10:09 35.98483 36.95387 39992 ft 508 kts 45°
2026-04-29 10:09 36.03259 37.01824 39990 ft 508 kts 45°
2026-04-29 10:10 36.08023 37.08259 39991 ft 506 kts 45°
2026-04-29 10:10 36.12777 37.14689 39991 ft 506 kts 45°
2026-04-29 10:11 36.17735 37.20836 39986 ft 503 kts 35°
2026-04-29 10:11 36.20603 37.23175 39988 ft 498 kts 24°
2026-04-29 10:11 36.23765 37.24869 39990 ft 493 kts 14°
2026-04-29 10:12 36.30421 37.26616 39992 ft 489 kts
2026-04-29 10:12 36.37132 37.28120 39988 ft 491 kts
2026-04-29 10:13 36.43784 37.30125 39988 ft 493 kts 12°
2026-04-29 10:13 36.50350 37.32620 39991 ft 494 kts 14°
2026-04-29 10:14 36.56892 37.35191 39983 ft 493 kts 14°
2026-04-29 10:14 36.63451 37.37733 39983 ft 493 kts 13°
2026-04-29 10:15 36.70045 37.39994 39979 ft 491 kts 10°
2026-04-29 10:15 36.76694 37.41956 39976 ft 490 kts
2026-04-29 10:16 36.82225 37.43538 39974 ft 490 kts
2026-04-29 10:16 36.89990 37.45788 39976 ft 490 kts
2026-04-29 10:17 36.96503 37.48345 39968 ft 496 kts 23°
2026-04-29 10:17 37.02222 37.53223 39969 ft 501 kts 38°
2026-04-29 10:18 37.07490 37.58864 39971 ft 501 kts 38°
2026-04-29 10:18 37.12870 37.64394 39965 ft 501 kts 36°
2026-04-29 10:19 37.18346 37.69795 39962 ft 500 kts 36°
2026-04-29 10:19 37.23831 37.75156 39966 ft 500 kts 36°
2026-04-29 10:20 37.29315 37.80529 39963 ft 499 kts 36°
2026-04-29 10:20 37.34789 37.85912 39965 ft 500 kts 36°
2026-04-29 10:21 37.40255 37.91300 39963 ft 499 kts 36°
2026-04-29 10:21 37.45717 37.96695 39960 ft 498 kts 36°
2026-04-29 10:22 37.51165 38.02084 39982 ft 498 kts 36°
2026-04-29 10:22 37.56625 38.07476 39975 ft 500 kts 36°
2026-04-29 10:23 37.62098 38.12878 39975 ft 499 kts 36°
2026-04-29 10:23 37.67566 38.18281 39979 ft 499 kts 36°
2026-04-29 10:24 37.73024 38.23683 39976 ft 499 kts 36°
2026-04-29 10:24 37.78489 38.29104 39965 ft 499 kts 36°
2026-04-29 10:25 37.83943 38.34524 39961 ft 499 kts 36°
2026-04-29 10:25 37.89400 38.39959 39958 ft 499 kts 36°
2026-04-29 10:26 37.94858 38.45405 39964 ft 499 kts 36°
2026-04-29 10:26 38.00309 38.50853 39967 ft 499 kts 36°
2026-04-29 10:27 38.08485 38.59048 39978 ft 499 kts 36°
2026-04-29 10:28 38.13898 38.64486 39972 ft 499 kts 36°
2026-04-29 10:28 38.19334 38.69987 39979 ft 501 kts 37°
2026-04-29 10:29 38.24787 38.75509 39980 ft 501 kts 37°
2026-04-29 10:29 38.30231 38.81030 39975 ft 501 kts 37°
2026-04-29 10:30 38.34798 38.85680 39979 ft 502 kts 37°
2026-04-29 10:30 38.40216 38.91208 39966 ft 502 kts 37°
2026-04-29 10:31 38.45663 38.96773 39964 ft 502 kts 37°
2026-04-29 10:31 38.51130 39.02342 39958 ft 503 kts 37°
2026-04-29 10:32 38.56601 39.07904 39964 ft 503 kts 37°
2026-04-29 10:32 38.62075 39.13493 39961 ft 503 kts 37°
2026-04-29 10:33 38.67545 39.19092 39964 ft 503 kts 37°
2026-04-29 10:33 38.72760 39.25055 39972 ft 505 kts 46°
2026-04-29 10:34 38.77280 39.31971 39973 ft 507 kts 51°
2026-04-29 10:34 38.81646 39.39054 39978 ft 506 kts 51°
2026-04-29 10:35 38.86068 39.46095 39981 ft 506 kts 50°
2026-04-29 10:35 38.90538 39.53069 39965 ft 506 kts 49°
2026-04-29 10:36 38.95034 39.60037 39965 ft 506 kts 49°
2026-04-29 10:36 38.99518 39.66996 39966 ft 506 kts 50°
2026-04-29 10:37 39.04001 39.73962 39976 ft 505 kts 50°
2026-04-29 10:37 39.08478 39.80923 39978 ft 506 kts 50°
2026-04-29 10:38 39.12959 39.87904 39984 ft 505 kts 50°
2026-04-29 10:38 39.17435 39.94893 39979 ft 505 kts 50°
2026-04-29 10:39 39.21847 40.01864 39978 ft 505 kts 50°
2026-04-29 10:39 39.26275 40.08925 39979 ft 507 kts 50°
2026-04-29 10:40 39.30711 40.16005 39988 ft 507 kts 50°
2026-04-29 10:40 39.35161 40.23060 39986 ft 506 kts 50°
2026-04-29 10:41 39.39636 40.30089 39998 ft 506 kts 50°
2026-04-29 10:41 39.44113 40.37123 40001 ft 506 kts 50°
2026-04-29 10:42 39.48579 40.44160 40000 ft 506 kts 50°
2026-04-29 10:42 39.53044 40.51216 39998 ft 506 kts 50°
2026-04-29 10:43 39.57482 40.58302 40001 ft 506 kts 51°
2026-04-29 10:43 39.61868 40.65444 40007 ft 507 kts 51°
2026-04-29 10:44 39.66239 40.72624 40009 ft 508 kts 51°
2026-04-29 10:44 39.70579 40.79797 40008 ft 508 kts 51°
2026-04-29 10:45 39.74976 40.86978 40017 ft 508 kts 51°
2026-04-29 10:45 39.79388 40.94156 40028 ft 508 kts 51°
2026-04-29 10:46 39.83796 41.01346 40022 ft 508 kts 51°
2026-04-29 10:46 39.88201 41.08553 40019 ft 508 kts 51°
2026-04-29 10:47 39.92587 41.15768 40018 ft 508 kts 52°
2026-04-29 10:47 39.96094 41.23714 40018 ft 507 kts 71°
2026-04-29 10:47 39.97041 41.28127 40018 ft 505 kts 82°
2026-04-29 10:48 39.97428 41.32661 40021 ft 502 kts 89°
2026-04-29 10:48 39.97533 41.37206 39774 ft 503 kts 91°
2026-04-29 10:48 39.97602 41.41751 39513 ft 499 kts 90°
2026-04-29 10:48 39.97737 41.46274 39126 ft 498 kts 89°
2026-04-29 10:49 39.97955 41.50779 38671 ft 497 kts 88°
2026-04-29 10:49 39.98235 41.55253 38186 ft 495 kts 87°
2026-04-29 10:49 39.98551 41.59725 37705 ft 493 kts 86°
2026-04-29 10:49 39.98878 41.64157 37237 ft 490 kts 86°
2026-04-29 10:50 39.99205 41.68573 36768 ft 488 kts 86°
2026-04-29 10:50 39.99527 41.72965 36299 ft 486 kts 86°
2026-04-29 10:50 39.99843 41.77346 35823 ft 485 kts 86°
2026-04-29 10:50 40.00156 41.81725 35315 ft 485 kts 86°
2026-04-29 10:51 40.00471 41.86109 34802 ft 486 kts 86°
2026-04-29 10:51 40.00784 41.90446 34298 ft 487 kts 86°
2026-04-29 10:51 40.01102 41.94842 33791 ft 487 kts 86°
2026-04-29 10:51 40.01419 41.99237 33281 ft 486 kts 86°
2026-04-29 10:52 40.01734 42.03626 32774 ft 486 kts 86°
2026-04-29 10:52 40.02047 42.08023 32258 ft 487 kts 86°
2026-04-29 10:52 40.02359 42.12425 31749 ft 488 kts 86°
2026-04-29 10:52 40.02670 42.16844 31235 ft 490 kts 86°
2026-04-29 10:53 40.02980 42.21260 30695 ft 491 kts 86°
2026-04-29 10:53 40.03290 42.25702 30146 ft 492 kts 86°
2026-04-29 10:53 40.03598 42.30152 29584 ft 493 kts 86°
2026-04-29 10:53 40.03905 42.34602 29024 ft 491 kts 86°
2026-04-29 10:54 40.04208 42.39027 28465 ft 488 kts 86°
2026-04-29 10:54 40.04501 42.43407 27919 ft 483 kts 87°
2026-04-29 10:54 40.04773 42.47763 27350 ft 479 kts 87°
2026-04-29 10:54 40.05036 42.52085 26767 ft 476 kts 87°
2026-04-29 10:55 40.05296 42.56379 26198 ft 472 kts 87°
2026-04-29 10:55 40.05554 42.60617 25624 ft 468 kts 87°
2026-04-29 10:55 40.05813 42.64845 25056 ft 465 kts 87°
2026-04-29 10:55 40.06070 42.69033 24502 ft 461 kts 87°
2026-04-29 10:56 40.06322 42.73180 23933 ft 457 kts 87°
2026-04-29 10:56 40.06570 42.77293 23385 ft 453 kts 87°
2026-04-29 10:56 40.06816 42.81367 22832 ft 449 kts 87°
2026-04-29 10:56 40.07058 42.85417 22286 ft 445 kts 87°
2026-04-29 10:57 40.07298 42.89430 21744 ft 441 kts 87°
2026-04-29 10:57 40.07533 42.93406 21209 ft 437 kts 87°
2026-04-29 10:57 40.07759 42.97351 20653 ft 433 kts 87°
2026-04-29 10:57 40.07981 43.01253 20097 ft 429 kts 86°
2026-04-29 10:58 40.08202 43.05109 19548 ft 424 kts 86°
2026-04-29 10:58 40.08423 43.08938 18992 ft 421 kts 86°
2026-04-29 10:58 40.08641 43.12734 18440 ft 417 kts 86°
2026-04-29 10:58 40.08858 43.16496 17898 ft 413 kts 86°
2026-04-29 10:59 40.09071 43.20213 17363 ft 409 kts 86°
2026-04-29 10:59 40.09282 43.23904 16835 ft 406 kts 86°
2026-04-29 10:59 40.09488 43.27561 16329 ft 402 kts 86°
2026-04-29 10:59 40.09693 43.31190 15819 ft 399 kts 86°
2026-04-29 11:00 40.09895 43.34790 15313 ft 395 kts 86°
2026-04-29 11:00 40.10088 43.38359 14807 ft 392 kts 86°
2026-04-29 11:00 40.10277 43.41889 14314 ft 389 kts 86°
2026-04-29 11:00 40.10464 43.45395 13807 ft 385 kts 86°
2026-04-29 11:01 40.10650 43.48874 13333 ft 382 kts 86°
2026-04-29 11:01 40.10833 43.52281 12855 ft 379 kts 86°
2026-04-29 11:01 40.11018 43.55735 12364 ft 375 kts 86°
2026-04-29 11:01 40.11199 43.59125 11884 ft 372 kts 86°
2026-04-29 11:02 40.11376 43.62443 11425 ft 369 kts 86°
2026-04-29 11:02 40.11562 43.65780 11100 ft 367 kts 85°
2026-04-29 11:02 40.11801 43.69067 10944 ft 353 kts 84°
2026-04-29 11:02 40.12054 43.72136 10823 ft 327 kts 84°
2026-04-29 11:03 40.12296 43.74968 10706 ft 303 kts 84°
2026-04-29 11:03 40.12526 43.77631 10593 ft 292 kts 84°
2026-04-29 11:03 40.12752 43.80267 10475 ft 291 kts 84°
2026-04-29 11:03 40.12977 43.82896 10241 ft 292 kts 84°
2026-04-29 11:04 40.13200 43.85519 9812 ft 291 kts 84°
2026-04-29 11:04 40.13421 43.88136 9356 ft 288 kts 84°
2026-04-29 11:04 40.13640 43.90726 8918 ft 286 kts 84°
2026-04-29 11:04 40.13857 43.93311 8486 ft 286 kts 84°
2026-04-29 11:05 40.14073 43.95881 8094 ft 283 kts 84°
2026-04-29 11:05 40.14287 43.98432 7721 ft 281 kts 84°
2026-04-29 11:05 40.14485 44.00952 7370 ft 279 kts 85°
2026-04-29 11:05 40.14579 44.03404 7069 ft 255 kts 89°
2026-04-29 11:06 40.14588 44.05554 6991 ft 219 kts 91°
2026-04-29 11:06 40.14588 44.07407 6991 ft 195 kts 91°
2026-04-29 11:06 40.14589 44.09157 6942 ft 192 kts 90°
2026-04-29 11:06 40.14594 44.10844 6668 ft 176 kts 90°
2026-04-29 11:07 40.14599 44.12385 6419 ft 166 kts 90°
2026-04-29 11:07 40.14604 44.13878 6245 ft 164 kts 90°
2026-04-29 11:07 40.14610 44.15361 6047 ft 163 kts 90°
2026-04-29 11:07 40.14617 44.16809 5840 ft 160 kts 91°
2026-04-29 11:08 40.14622 44.18245 5635 ft 157 kts 91°
2026-04-29 11:08 40.14629 44.19661 5423 ft 155 kts 91°
2026-04-29 11:08 40.14636 44.21064 5223 ft 154 kts 91°
2026-04-29 11:08 40.14643 44.22452 5028 ft 152 kts 91°
2026-04-29 11:09 40.14650 44.23831 4832 ft 151 kts 91°
2026-04-29 11:09 40.14662 44.25198 4648 ft 149 kts 90°
2026-04-29 11:09 40.14695 44.26553 4556 ft 150 kts 90°
2026-04-29 11:09 40.14714 44.27910 4321 ft 149 kts 92°
2026-04-29 11:10 40.14713 44.29244 4076 ft 146 kts 92°
2026-04-29 11:10 40.14695 44.30569 3849 ft 145 kts 92°
2026-04-29 11:10 40.14689 44.31888 3616 ft 145 kts 92°
2026-04-29 11:10 40.14701 44.33201 3449 ft 145 kts 90°
2026-04-29 11:11 40.14715 44.34519 3304 ft 145 kts 91°
2026-04-29 11:11 40.14712 44.35801 3085 ft 143 kts 91°
2026-04-29 11:11 40.14720 44.37161 2913 ft 141 kts 91°
2026-04-29 11:11 40.14724 44.38288 2836 ft 101 kts 87°
2026-04-29 11:12 40.14730 44.38947 2835 ft 50 kts 90°
2026-04-29 11:12 40.14738 44.39383 2837 ft 49 kts 89°
2026-04-29 11:12 40.14739 44.39811 2842 ft 43 kts 90°
2026-04-29 11:12 40.14740 44.40179 2845 ft 40 kts 90°
2026-04-29 11:13 40.14741 44.40547 2846 ft 39 kts 90°
2026-04-29 11:13 40.14743 44.40892 2844 ft 37 kts 89°
2026-04-29 11:13 40.14751 44.41190 2844 ft 20 kts 74°
2026-04-29 11:13 40.14814 44.41240 2843 ft 7 kts 345°
2026-04-29 11:14 40.14856 44.41214 2845 ft 7 kts 334°
2026-04-29 11:14 40.14907 44.41182 2845 ft 10 kts 335°
2026-04-29 11:14 40.14971 44.41186 2844 ft 9 kts 35°
2026-04-29 11:14 40.14992 44.41262 2845 ft 12 kts 87°
2026-04-29 11:15 40.14994 44.41377 2845 ft 10 kts 89°
2026-04-29 11:15 40.15019 44.41428 2845 ft 6 kts 29°
2026-04-29 11:15 40.15058 44.41437 2845 ft 6 kts
2026-04-29 11:15 40.15090 44.41437 2844 ft 0 kts 359°